Location: Goudex
(43.3760°N, 0.9543°E)
Time: 18:07:26
(UTC+00:00)

NOAA 6 - Pass Details

Date: 20 November 2019
Orbit: 772 x 788 km, 98.6° (Epoch: 07 December)

Event Time Altitude Azimuth Distance (km) Brightness Sun altitude
Rises 05:49:52 0° 11° (N) 3,262 7.2 -11.9°
Reaches altitude 10° 05:52:12 10° 10° (N) 2,329 6.4 -11.5°
Maximum altitude 05:57:18 72° 287° (WNW) 815 4.0 -10.6°
Drops below altitude 10° 06:02:22 10° 204° (SSW) 2,309 6.4 -9.7°
Sets 06:04:40 0° 202° (SSW) 3,232 7.2 -9.3°
